Stations météo

Publicité
Carcassonne, France (7635): Température de l'air & dewpoint: 12.12.2017 21:00:00 - 18.12.2017 21:00:00 (CET)Carcassonne, France (7635): Température de l'air 5cm: 12.12.2017 21:00:00 - 18.12.2017 21:00:00 (CET)Carcassonne, France (7635): Température de l'air -20cm & Température de l'air -100cm: 12.12.2017 21:00:00 - 18.12.2017 21:00:00 (CET)Carcassonne, France (7635): Vitesse du vent & gusts: 12.12.2017 21:00:00 - 18.12.2017 21:00:00 (CET)Carcassonne, France (7635): Direction du vent: 12.12.2017 21:00:00 - 18.12.2017 21:00:00 (CET)Carcassonne, France (7635): reduced air pressure: 12.12.2017 21:00:00 - 18.12.2017 21:00:00 (CET)Carcassonne, France (7635): visibility: 12.12.2017 21:00:00 - 18.12.2017 21:00:00 (CET)Carcassonne, France (7635): Ensoleillement: 12.12.2017 21:00:00 - 18.12.2017 21:00:00 (CET)Carcassonne, France (7635): Quantités de précipitations: 12.12.2017 21:00:00 - 18.12.2017 21:00:00 (CET)
Date & Time tt [°C] td [°C] tt 5cm [°C] tt -20cm [°C] tt -100cm [°C] ff [km/h] ff [knt] fx [km/h] fx [knt] dd ppp [hPa] vv [km] sd [min] rr [mm]
18.12.2017 21:00:00 7,9 6,4 6,1 7,6 10,3 8 5 32 18 W 1024,8 20 0 0,0
18.12.2017 20:00:00 8,9 7,7 7,9 7,6 10,3 18 10 35 19 W 1023,8 10 0 0,4
18.12.2017 19:00:00 8,9 7,8 8,0 7,6 10,3 22 12 43 23 WNW 1022,8 10 0 0,0
18.12.2017 18:00:00 8,9 8,0 8,1 7,5 10,2 23 12 46 25 WNW 1022,3 14 0 0,4
18.12.2017 17:00:00 8,7 7,8 8,1 7,4 10,3 27 14 45 24 WNW 1021,5 10 0 0,8
18.12.2017 16:00:00 8,4 7,5 7,8 7,3 10,3 26 14 51 27 WNW 1021,8 4,1 0 1,2
18.12.2017 15:00:00 8,0 7,1 7,4 7,2 10,3 22 12 45 25 W 1022,5 4,4 0 6,3
18.12.2017 14:00:00 7,8 6,6 7,4 7,2 10,3 15 8 26 14 W 1025,2 3,0 0 3,8
18.12.2017 13:00:00 8,5 6,5 7,6 7,1 10,3 15 8 39 21 WNW 1026,8 5 0 0,6
18.12.2017 12:00:00 9,0 5,0 8,4 7,0 10,3 18 10 37 20 WNW 1027,4 54 0 0,0
18.12.2017 11:00:00 8,6 4,8 6,8 7,0 10,3 23 12 38 20 WNW 1027,7 59 0 0,0
18.12.2017 10:00:00 7,4 4,5 6,5 6,9 10,3 19 11 32 17 WNW 1028,2 52 0 0,0
18.12.2017 09:00:00 7,3 4,1 6,1 7,0 10,3 16 9 32 17 WNW 1028,8 60 0 0,0
18.12.2017 08:00:00 7,0 4,5 5,8 7,0 10,3 16 9 31 17 WNW 1029,7 10 0 0,0
18.12.2017 07:00:00 6,7 4,5 5,7 7,0 10,3 18 10 28 15 WNW 1029,7 10 0 0,0
18.12.2017 06:00:00 6,7 4,5 5,6 7,0 10,3 13 7 29 15 W 1030,3 60 0 0,0
18.12.2017 05:00:00 6,5 4,3 5,6 7,0 10,3 18 10 33 18 W 1030,7 10 0 0,0
18.12.2017 04:00:00 6,8 4,8 5,1 7,1 10,3 24 13 37 20 WNW 1031,1 10 0 0,0
18.12.2017 03:00:00 6,1 4,7 5,2 7,1 10,3 13 7 21 11 WNW 1030,9 10 0 0,0
18.12.2017 02:00:00 6,2 5,3 5,7 7,1 10,3 13 7 19 10 WNW 1031,6 10 0 0,0
18.12.2017 01:00:00 6,1 5,2 5,6 7,1 10,3 13 7 25 14 WNW 1031,9 20 0 0,2
18.12.2017 00:00:00 6,1 5,1 5,5 7,1 10,3 18 10 29 16 WNW 1031,9 10 0 0,4
17.12.2017 23:00:00 6,3 4,9 5,7 7,1 10,3 17 9 32 17 NW 1031,8 16 0 0,2
17.12.2017 22:00:00 6,3 4,9 5,7 7,1 10,3 21 11 42 23 NW 1031,5 52 0 0,2
17.12.2017 21:00:00 6,7 5,5 5,7 7,1 10,4 26 14 43 23 NW 1031,1 10 0 0,8
17.12.2017 20:00:00 6,7 5,3 5,8 7,1 10,3 27 14 42 23 NW 1030,8 10 0 1,0
17.12.2017 19:00:00 6,6 5,1 5,7 7,1 10,3 18 10 37 20 NW 1030,5 10 0 1,0
17.12.2017 18:00:00 6,6 4,9 5,7 7,1 10,3 16 9 37 20 NW 1029,9 10 0 0,4
17.12.2017 17:00:00 7,2 4,5 6,0 7,0 10,4 24 13 41 22 NW 1029,3 9 0 0,2
17.12.2017 16:00:00 8,2 2,6 7,4 6,9 10,3 26 14 46 25 WNW 1028,8 10 0 0,0
17.12.2017 15:00:00 8,2 2,0 6,9 6,7 10,3 28 15 51 28 WNW 1028,3 10 10 0,0
17.12.2017 14:00:00 8,8 2,1 7,9 6,6 10,4 22 12 38 20 WNW 1028,4 10 16 0,0
17.12.2017 13:00:00 7,0 1,5 6,4 6,5 10,4 18 10 30 16 NW 1029,2 10 0 0,0
17.12.2017 12:00:00 5,7 1,8 5,6 6,4 10,4 22 12 32 18 WNW 1030,2 52 0 0,0
17.12.2017 11:00:00 5,0 1,7 5,0 6,4 10,4 21 11 31 17 WNW 1030,9 10 4 0,0
17.12.2017 10:00:00 4,5 1,7 3,7 6,3 10,4 19 10 31 17 WNW 1030,4 35 52 0,0
17.12.2017 09:00:00 3,5 1,5 2,3 6,4 10,4 13 7 26 14 W 1030,0 33 18 0,0
17.12.2017 08:00:00 3,4 1,3 2,9 6,4 10,4 16 9 29 16 WNW 1029,6 10 0 0,0
17.12.2017 07:00:00 3,6 1,6 3,1 6,5 10,4 16 9 35 19 WNW 1029,2 10 0 0,0
17.12.2017 06:00:00 3,5 1,7 2,8 6,6 10,4 16 9 32 17 WNW 1028,8 10 0 0,0
17.12.2017 05:00:00 3,5 1,5 3,0 6,7 10,4 16 9 31 17 WNW 1028,3 10 0 0,0
17.12.2017 04:00:00 3,4 1,6 2,9 6,8 10,4 19 10 29 16 WNW 1028,1 39 0 0,0
17.12.2017 03:00:00 3,2 1,2 2,2 6,9 10,4 9 5 30 16 W 1028,1 41 0 0,0
17.12.2017 02:00:00 3,2 1,2 2,5 6,9 10,4 18 10 33 18 WNW 1027,4 10 0 0,0
17.12.2017 01:00:00 3,8 1,7 3,1 7,1 10,4 21 11 34 18 WNW 1027,6 42 0 0,0
17.12.2017 00:00:00 3,7 1,2 3,1 7,1 10,4 22 12 37 20 WNW 1027,3 45 0 0,0
16.12.2017 23:00:00 4,0 1,5 3,6 7,3 10,4 18 10 34 19 W 1026,6 34 0 0,0
16.12.2017 22:00:00 4,2 1,7 3,2 7,4 10,4 24 13 38 21 WNW 1026,2 37 0 0,0
16.12.2017 21:00:00 4,4 1,4 3,7 7,6 10,4 18 10 44 24 WNW 1025,8 45 0 0,0
16.12.2017 20:00:00 5,0 1,5 4,2 7,6 10,4 22 12 40 22 WNW 1024,8 60 0 0,0
16.12.2017 19:00:00 5,7 1,0 4,8 7,7 10,4 23 13 35 19 WNW 1023,4 60 0 0,0
16.12.2017 18:00:00 5,6 1,5 5,2 7,8 10,4 16 8 46 25 W 1022,9 60 0 0,0
16.12.2017 17:00:00 6,0 1,3 5,7 7,8 10,4 12 6 47 25 WNW 1022,1 60 0 0,0
16.12.2017 16:00:00 6,7 1,6 6,6 7,7 10,4 24 13 43 23 WNW 1021,3 60 0 0,0
16.12.2017 15:00:00 6,8 1,5 6,9 7,6 10,3 28 15 51 28 WNW 1020,6 58 0 0,0
16.12.2017 14:00:00 7,4 1,9 6,9 7,5 10,3 31 17 47 25 WNW 1020,3 60 15 0,0
16.12.2017 13:00:00 6,6 2,3 6,9 7,4 10,4 24 13 46 25 WNW 1020,4 10 24 0,0
16.12.2017 12:00:00 6,6 2,7 6,1 7,2 10,4 26 14 45 24 WNW 1020,5 16 18 0,0
16.12.2017 11:00:00 6,6 3,0 7,1 7,2 10,3 25 13 40 21 WNW 1020,0 56 57 0,0
16.12.2017 10:00:00 5,0 2,4 3,5 7,4 10,4 21 11 34 18 WNW 1019,3 45 60 0,0
16.12.2017 09:00:00 3,7 2,2 2,8 7,5 10,3 20 11 35 19 WNW 1018,3 45 12 0,0
16.12.2017 08:00:00 3,5 2,2 2,6 7,6 10,3 15 8 31 17 WNW 1017,2 22 0 0,0
16.12.2017 07:00:00 4,5 2,4 3,8 7,7 10,3 18 10 43 23 WNW 1015,8 10 0 0,0
16.12.2017 06:00:00 5,2 2,5 4,7 7,8 10,3 29 16 44 24 WNW 1014,7 10 0 0,0
16.12.2017 05:00:00 5,6 3,3 5,0 7,9 10,3 22 12 41 22 WNW 1014,3 10 0 0,0
16.12.2017 04:00:00 6,2 3,5 5,4 8,0 10,3 24 13 41 22 W 1013,8 60 0 0,0
16.12.2017 03:00:00 6,0 3,5 5,5 8,0 10,3 23 13 40 22 W 1013,5 60 0 0,0
16.12.2017 02:00:00 6,5 3,5 5,4 8,1 10,3 24 13 47 25 WNW 1012,4 60 0 0,0
16.12.2017 01:00:00 6,5 3,5 5,4 8,2 10,3 26 14 42 23 W 1011,8 10 0 0,2
16.12.2017 00:00:00 7,0 3,6 5,4 8,3 10,3 27 15 48 26 W 1011,4 50 0 0,2
15.12.2017 23:00:00 6,8 3,4 5,2 8,4 10,2 26 14 49 26 W 1010,7 10 0 0,2
15.12.2017 22:00:00 6,7 3,3 5,6 8,5 10,2 21 11 46 25 W 1010,4 59 0 0,0
15.12.2017 21:00:00 7,0 3,6 5,8 8,6 10,2 22 12 50 27 W 1009,9 60 0 0,0
15.12.2017 20:00:00 6,7 4,0 5,3 8,7 10,2 15 8 44 24 NW 1009,3 10 0 0,0
15.12.2017 19:00:00 6,9 4,0 5,6 8,8 10,2 28 15 57 31 W 1008,7 18 0 -
15.12.2017 18:00:00 7,7 3,9 6,2 8,8 10,2 27 15 54 29 W 1007,9 49 0 0,2
15.12.2017 17:00:00 8,5 3,7 7,9 8,8 10,2 23 12 61 33 WNW 1007,0 60 10 0,0
15.12.2017 16:00:00 9,8 3,3 9,8 8,7 10,2 30 16 61 33 WNW 1006,6 60 58 0,0
15.12.2017 15:00:00 9,7 5,1 7,4 8,6 10,2 19 11 57 31 WNW 1006,5 44 39 0,0
15.12.2017 14:00:00 9,3 3,9 9,2 8,4 10,2 36 20 58 32 WNW 1006,9 52 49 0,0
15.12.2017 13:00:00 9,1 4,1 10,3 8,2 10,2 33 18 49 26 WNW 1007,6 37 60 0,0
15.12.2017 12:00:00 8,1 4,1 7,7 8,1 10,1 26 14 44 24 WNW 1009,1 60 57 0,0
15.12.2017 11:00:00 6,8 4,3 5,2 8,2 10,1 18 10 32 18 WNW 1009,7 60 13 0,0
15.12.2017 10:00:00 5,3 3,5 4,6 8,3 10,2 0 0 27 15 N 1010,1 60 0 0,6
15.12.2017 09:00:00 5,2 3,5 4,5 8,4 10,1 17 9 36 19 W 1010,1 9 0 1,6
15.12.2017 08:00:00 5,6 3,8 4,8 8,4 10,1 18 10 32 18 WNW 1008,8 10 0 0,8
15.12.2017 07:00:00 6,4 3,9 5,3 8,5 10,1 20 11 43 23 WNW 1007,7 16 0 1,0
15.12.2017 06:00:00 9,1 6,4 8,0 8,5 10,1 28 15 50 27 WNW 1006,4 20 0 0,0
15.12.2017 05:00:00 10,2 6,0 8,5 8,6 10,1 20 11 39 21 W 1006,1 54 0 0,0
15.12.2017 04:00:00 10,5 6,8 8,9 8,6 10,1 24 13 39 21 W 1006,7 10 0 0,0
15.12.2017 03:00:00 10,6 7,5 9,1 8,6 10,1 18 10 40 21 W 1007,7 10 0 0,0
15.12.2017 02:00:00 10,3 7,9 9,1 8,6 10,1 16 9 34 18 W 1008,2 10 0 0,2
15.12.2017 01:00:00 10,4 8,2 9,3 8,6 10,1 18 10 29 16 W 1009,1 10 0 0,6
15.12.2017 00:00:00 10,5 8,6 9,5 8,6 10,1 21 11 32 17 W 1009,6 10 0 1,0
14.12.2017 23:00:00 10,6 8,5 9,5 8,6 10,1 15 8 29 16 W 1009,6 10 0 0,2
14.12.2017 22:00:00 11,2 8,2 9,6 8,6 10,1 11 6 19 11 W 1009,9 60 0 0,0
14.12.2017 21:00:00 11,4 8,1 10,7 8,7 10,1 14 8 29 16 WNW 1010,2 60 0 0,0
14.12.2017 20:00:00 11,8 8,1 9,7 8,7 10,1 17 9 31 17 W 1010,4 60 0 0,0
14.12.2017 19:00:00 11,5 8,2 10,0 8,7 10,1 14 7 21 11 W 1010,8 17 0 0,2
14.12.2017 18:00:00 12,2 7,9 10,9 8,7 10,1 12 6 20 11 W 1010,9 60 0 0,0
14.12.2017 17:00:00 12,4 7,9 11,7 8,5 10,1 14 8 29 16 W 1011,5 60 0 0,0
14.12.2017 16:00:00 13,8 7,8 13,8 8,4 10,1 21 11 43 23 WNW 1011,9 10 11 0,0
14.12.2017 15:00:00 14,8 7,1 14,9 8,1 10,1 22 12 36 20 WNW 1011,7 55 47 0,0
14.12.2017 14:00:00 15,0 7,3 15,3 7,8 10,1 22 12 44 24 W 1012,2 10 52 0,0
14.12.2017 13:00:00 14,6 8,5 14,5 7,5 10,1 21 11 34 18 WNW 1013,4 60 57 0,0
14.12.2017 12:00:00 13,0 8,9 12,2 7,2 10,1 22 12 36 20 WNW 1014,6 60 48 0,0
14.12.2017 11:00:00 12,3 9,5 10,4 7,0 10,1 16 9 29 16 WNW 1015,7 10 42 0,0
14.12.2017 10:00:00 10,7 9,1 9,9 6,9 10,1 13 7 28 15 WNW 1016,0 60 0 0,0
14.12.2017 09:00:00 10,8 8,9 9,8 6,9 10,2 16 9 29 16 W 1016,2 10 0 0,0
14.12.2017 08:00:00 10,8 9,7 10,0 6,8 10,2 21 11 53 29 WNW 1016,1 10 0 1,0
14.12.2017 07:00:00 11,0 9,4 9,9 6,6 10,2 19 10 35 19 WNW 1015,6 19 0 0,0
14.12.2017 06:00:00 10,8 9,2 9,6 6,6 10,2 18 10 31 17 W 1014,9 10 0 0,0
14.12.2017 05:00:00 10,6 9,0 9,7 6,4 10,2 18 10 43 23 W 1015,3 10 0 0,0
14.12.2017 04:00:00 11,1 8,8 9,3 6,4 10,2 29 16 47 25 WNW 1015,4 10 0 0,0
14.12.2017 03:00:00 9,9 9,1 9,0 6,2 10,2 21 11 32 17 W 1015,9 10 0 0,0
14.12.2017 02:00:00 9,6 8,8 8,4 6,2 10,3 20 11 34 19 W 1016,0 16 0 0,2
14.12.2017 01:00:00 8,9 8,0 6,5 6,1 10,2 17 9 29 16 WNW 1016,2 7 0 0,0
14.12.2017 00:00:00 6,7 5,8 5,6 6,1 10,3 5 3 12 7 SW 1016,1 10 0 0,0
13.12.2017 23:00:00 5,9 4,9 5,5 6,1 10,3 5 3 7 4 NW 1016,5 9 0 0,0
13.12.2017 22:00:00 5,8 4,4 5,4 6,0 10,3 2 1 7 4 WSW 1017,4 3,7 0 0,4
13.12.2017 21:00:00 6,0 4,2 5,3 6,0 10,3 2 1 8 4 WNW 1017,7 12 0 0,0
13.12.2017 20:00:00 6,4 3,7 5,5 5,9 10,3 4 2 10 5 NNW 1017,9 11 0 0,0
13.12.2017 19:00:00 6,4 3,0 5,4 5,8 10,3 2 1 9 5 ENE 1017,7 19 0 0,0
13.12.2017 18:00:00 6,5 3,1 4,7 5,7 10,3 6 3 9 5 E 1017,7 12 0 0,0
13.12.2017 17:00:00 7,6 2,5 5,5 5,5 10,3 0 0 5 3 N 1018,1 10 11 0,0
13.12.2017 16:00:00 8,9 2,7 8,0 5,3 10,3 2 1 4 2 - 1018,4 10 28 0,0
13.12.2017 15:00:00 7,3 2,4 8,0 5,0 10,3 0 0 9 5 N 1018,9 10 3 0,0
13.12.2017 14:00:00 7,8 1,4 8,4 4,7 10,3 3 1 8 4 WNW 1019,8 57 3 0,0
13.12.2017 13:00:00 6,7 1,8 7,1 4,5 10,3 0 0 5 3 N 1020,6 37 4 0,0
13.12.2017 12:00:00 4,9 0,3 3,2 4,4 10,3 0 0 4 2 N 1021,1 57 27 0,0
13.12.2017 11:00:00 1,5 0,2 -0,1 4,5 10,4 0 0 7 4 N 1022,0 44 11 0,0
13.12.2017 10:00:00 -0,1 -1,2 -1,3 4,6 10,4 2 1 11 6 WNW 1022,9 38 0 0,0
13.12.2017 09:00:00 -1,3 -2,0 -4,6 4,7 10,4 3 1 7 4 SW 1023,2 60 21 0,0
13.12.2017 08:00:00 -2,2 -3,0 -5,6 4,8 10,4 3 2 6 3 SW 1023,3 41 0 0,0
13.12.2017 07:00:00 -2,5 -3,3 -5,6 4,9 10,4 0 0 14 8 N 1023,3 20 0 0,0
13.12.2017 06:00:00 -2,0 -2,7 -5,5 5,1 10,4 6 3 14 8 S 1023,0 46 0 0,0
13.12.2017 05:00:00 -1,8 -2,5 -5,2 5,2 10,4 4 2 9 5 - 1022,8 10 0 0,0
13.12.2017 04:00:00 -1,6 -2,3 -4,9 5,4 10,4 0 0 8 4 N 1023,2 10 0 0,0
13.12.2017 03:00:00 -1,6 -2,4 -4,9 5,6 10,4 4 2 6 3 S 1023,5 10 0 0,0
13.12.2017 02:00:00 -1,4 -2,2 -4,7 5,8 10,4 3 1 6 3 S 1023,6 9 0 0,0
13.12.2017 01:00:00 -1,0 -2,0 -4,2 5,9 10,4 4 2 7 4 S 1023,8 6 0 0,0
13.12.2017 00:00:00 0,5 -0,4 -3,9 6,1 10,4 5 3 8 5 W 1023,6 7 0 0,0
12.12.2017 23:00:00 0,4 -0,7 -3,6 6,3 10,4 0 0 8 4 N 1023,1 16 0 0,0
12.12.2017 22:00:00 1,0 -0,5 -2,0 6,5 10,4 5 3 13 7 WSW 1022,6 11 0 0,0
12.12.2017 21:00:00 1,6 -0,7 -1,6 6,6 10,4 9 5 16 9 SW 1022,0 8 0 0,0

tt = Température de l'air
td = dewpoint
tt 5cm = Température de l'air 5cm
tt -20cm = Température de l'air -20cm
tt -100cm = Température de l'air -100cm
ff = Vitesse du vent
fx = gusts
dd = Direction du vent
ppp = reduced air pressure
vv = visibility
sd = Ensoleillement
rr = Quantités de précipitations

stations d'obs. à proximité